owner,sensor,date,latitude,longitude,sea_surface_height_above_sea_level,qcFlag 
WAVCIS,ioos:station:WAVCIS:CSI16:1,2009-03-06T17:00:00Z,29.4012,-89.0355,9.479,11111222 
WAVCIS,ioos:station:WAVCIS:CSI16:1,2009-03-06T18:00:00Z,29.4012,-89.0355,9.521,11111222 
WAVCIS,ioos:station:WAVCIS:CSI16:1,2009-03-06T19:00:00Z,29.4012,-89.0355,9.572,11111222 
WAVCIS,ioos:station:WAVCIS:CSI16:1,2009-03-06T20:00:00Z,29.4012,-89.0355,9.608,11111222 
WAVCIS,ioos:station:WAVCIS:CSI16:1,2009-03-06T21:00:00Z,29.4012,-89.0355,9.631,11111222 
WAVCIS,ioos:station:WAVCIS:CSI16:1,2009-03-06T22:00:00Z,29.4012,-89.0355,9.642,11111222 
WAVCIS,ioos:station:WAVCIS:CSI16:1,2009-03-06T23:00:00Z,29.4012,-89.0355,9.646,11111222 
WAVCIS,ioos:station:WAVCIS:CSI16:1,2009-03-07T00:00:00Z,29.4012,-89.0355,9.642,11111222 
WAVCIS,ioos:station:WAVCIS:CSI16:1,2009-03-07T01:00:00Z,29.4012,-89.0355,9.617,11111222 
WAVCIS,ioos:station:WAVCIS:CSI16:1,2009-03-07T02:00:00Z,29.4012,-89.0355,9.577,11111222 
WAVCIS,ioos:station:WAVCIS:CSI16:1,2009-03-07T03:00:00Z,29.4012,-89.0355,9.509,11111222 
WAVCIS,ioos:station:WAVCIS:CSI16:1,2009-03-07T04:00:00Z,29.4012,-89.0355,9.442,11111222 
WAVCIS,ioos:station:WAVCIS:CSI16:1,2009-03-07T05:00:00Z,29.4012,-89.0355,9.37,11111222 
WAVCIS,ioos:station:WAVCIS:CSI16:1,2009-03-07T06:00:00Z,29.4012,-89.0355,9.288,11111222 
WAVCIS,ioos:station:WAVCIS:CSI16:1,2009-03-07T07:00:00Z,29.4012,-89.0355,9.234,11111222 
WAVCIS,ioos:station:WAVCIS:CSI16:1,2009-03-07T08:00:00Z,29.4012,-89.0355,9.184,11111222 
WAVCIS,ioos:station:WAVCIS:CSI16:1,2009-03-07T09:00:00Z,29.4012,-89.0355,9.149,11111222 
WAVCIS,ioos:station:WAVCIS:CSI16:1,2009-03-07T10:00:00Z,29.4012,-89.0355,9.143,11111222 
WAVCIS,ioos:station:WAVCIS:CSI16:1,2009-03-07T11:00:00Z,29.4012,-89.0355,9.151,11111222 
WAVCIS,ioos:station:WAVCIS:CSI16:1,2009-03-07T12:00:00Z,29.4012,-89.0355,9.184,11111222 
WAVCIS,ioos:station:WAVCIS:CSI16:1,2009-03-07T13:00:00Z,29.4012,-89.0355,9.231,11111222 
WAVCIS,ioos:station:WAVCIS:CSI16:1,2009-03-07T14:00:00Z,29.4012,-89.0355,9.294,11111222 
WAVCIS,ioos:station:WAVCIS:CSI16:1,2009-03-07T15:00:00Z,29.4012,-89.0355,9.349,11111222 
WAVCIS,ioos:station:WAVCIS:CSI16:1,2009-03-07T16:00:00Z,29.4012,-89.0355,9.4,11111222 
WAVCIS,ioos:station:WAVCIS:CSI16:1,2009-03-07T17:00:00Z,29.4012,-89.0355,9.448,11111222 
WAVCIS,ioos:station:WAVCIS:CSI16:1,2009-03-07T18:00:00Z,29.4012,-89.0355,9.479,11111222 
WAVCIS,ioos:station:WAVCIS:CSI16:1,2009-03-07T19:00:00Z,29.4012,-89.0355,9.503,11111222 
WAVCIS,ioos:station:WAVCIS:CSI16:1,2009-03-07T20:00:00Z,29.4012,-89.0355,9.552,11111222 
WAVCIS,ioos:station:WAVCIS:CSI16:1,2009-03-07T21:00:00Z,29.4012,-89.0355,9.591,11111222 
WAVCIS,ioos:station:WAVCIS:CSI16:1,2009-03-07T22:00:00Z,29.4012,-89.0355,9.625,11111222 
WAVCIS,ioos:station:WAVCIS:CSI16:1,2009-03-07T23:00:00Z,29.4012,-89.0355,9.647,11111222 
WAVCIS,ioos:station:WAVCIS:CSI16:1,2009-03-08T00:00:00Z,29.4012,-89.0355,9.656,11111222 
WAVCIS,ioos:station:WAVCIS:CSI16:1,2009-03-08T01:00:00Z,29.4012,-89.0355,9.665,11111222 
WAVCIS,ioos:station:WAVCIS:CSI16:1,2009-03-08T02:00:00Z,29.4012,-89.0355,9.645,11111222 
WAVCIS,ioos:station:WAVCIS:CSI16:1,2009-03-08T03:00:00Z,29.4012,-89.0355,9.607,11111222 
WAVCIS,ioos:station:WAVCIS:CSI16:1,2009-03-08T04:00:00Z,29.4012,-89.0355,9.553,11111222 
WAVCIS,ioos:station:WAVCIS:CSI16:1,2009-03-08T05:00:00Z,29.4012,-89.0355,9.484,11111222 
WAVCIS,ioos:station:WAVCIS:CSI16:1,2009-03-08T06:00:00Z,29.4012,-89.0355,9.393,11111222 
WAVCIS,ioos:station:WAVCIS:CSI16:1,2009-03-08T07:00:00Z,29.4012,-89.0355,9.323,11111222 
WAVCIS,ioos:station:WAVCIS:CSI16:1,2009-03-08T08:00:00Z,29.4012,-89.0355,9.26,11111222 
WAVCIS,ioos:station:WAVCIS:CSI16:1,2009-03-08T09:00:00Z,29.4012,-89.0355,9.226,11111222 
WAVCIS,ioos:station:WAVCIS:CSI16:1,2009-03-08T10:00:00Z,29.4012,-89.0355,9.201,11111222 
WAVCIS,ioos:station:WAVCIS:CSI16:1,2009-03-08T11:00:00Z,29.4012,-89.0355,9.191,11111222 
WAVCIS,ioos:station:WAVCIS:CSI16:1,2009-03-08T12:00:00Z,29.4012,-89.0355,9.211,11111222 
WAVCIS,ioos:station:WAVCIS:CSI16:1,2009-03-08T13:00:00Z,29.4012,-89.0355,9.255,11111222 
WAVCIS,ioos:station:WAVCIS:CSI16:1,2009-03-08T14:00:00Z,29.4012,-89.0355,9.306,11111222 
WAVCIS,ioos:station:WAVCIS:CSI16:1,2009-03-08T15:00:00Z,29.4012,-89.0355,9.333,11111222 
WAVCIS,ioos:station:WAVCIS:CSI16:1,2009-03-08T16:00:00Z,29.4012,-89.0355,9.37,11111222 
WAVCIS,ioos:station:WAVCIS:CSI16:1,2009-03-08T17:00:00Z,29.4012,-89.0355,9.406,11111222 
WAVCIS,ioos:station:WAVCIS:CSI16:1,2009-03-08T18:00:00Z,29.4012,-89.0355,9.421,11111222 
WAVCIS,ioos:station:WAVCIS:CSI16:1,2009-03-08T19:00:00Z,29.4012,-89.0355,9.441,11111222 
WAVCIS,ioos:station:WAVCIS:CSI16:1,2009-03-08T20:00:00Z,29.4012,-89.0355,9.485,11111222 
WAVCIS,ioos:station:WAVCIS:CSI16:1,2009-03-08T21:00:00Z,29.4012,-89.0355,9.519,11111222 
WAVCIS,ioos:station:WAVCIS:CSI16:1,2009-03-08T22:00:00Z,29.4012,-89.0355,9.549,11111222 
WAVCIS,ioos:station:WAVCIS:CSI16:1,2009-03-08T23:00:00Z,29.4012,-89.0355,9.571,11111222 
WAVCIS,ioos:station:WAVCIS:CSI16:1,2009-03-09T00:00:00Z,29.4012,-89.0355,9.593,11111222 
WAVCIS,ioos:station:WAVCIS:CSI16:1,2009-03-09T01:00:00Z,29.4012,-89.0355,9.602,11111222 
WAVCIS,ioos:station:WAVCIS:CSI16:1,2009-03-09T02:00:00Z,29.4012,-89.0355,9.615,11111222 
WAVCIS,ioos:station:WAVCIS:CSI16:1,2009-03-09T03:00:00Z,29.4012,-89.0355,9.609,11111222 
WAVCIS,ioos:station:WAVCIS:CSI16:1,2009-03-09T04:00:00Z,29.4012,-89.0355,9.57,11111222 
WAVCIS,ioos:station:WAVCIS:CSI16:1,2009-03-09T05:00:00Z,29.4012,-89.0355,9.514,11111222 
WAVCIS,ioos:station:WAVCIS:CSI16:1,2009-03-09T06:00:00Z,29.4012,-89.0355,9.456,11111222 
WAVCIS,ioos:station:WAVCIS:CSI16:1,2009-03-09T07:00:00Z,29.4012,-89.0355,9.389,11111222 
WAVCIS,ioos:station:WAVCIS:CSI16:1,2009-03-09T08:00:00Z,29.4012,-89.0355,9.326,11111222 
WAVCIS,ioos:station:WAVCIS:CSI16:1,2009-03-09T09:00:00Z,29.4012,-89.0355,9.284,11111222 
WAVCIS,ioos:station:WAVCIS:CSI16:1,2009-03-09T10:00:00Z,29.4012,-89.0355,9.268,11111222 
WAVCIS,ioos:station:WAVCIS:CSI16:1,2009-03-09T11:00:00Z,29.4012,-89.0355,9.259,11111222 
WAVCIS,ioos:station:WAVCIS:CSI16:1,2009-03-09T12:00:00Z,29.4012,-89.0355,9.255,11111222 
WAVCIS,ioos:station:WAVCIS:CSI16:1,2009-03-09T13:00:00Z,29.4012,-89.0355,9.274,11111222 
WAVCIS,ioos:station:WAVCIS:CSI16:1,2009-03-09T14:00:00Z,29.4012,-89.0355,9.308,11111222 
WAVCIS,ioos:station:WAVCIS:CSI16:1,2009-03-09T15:00:00Z,29.4012,-89.0355,9.35,11111222 
WAVCIS,ioos:station:WAVCIS:CSI16:1,2009-03-09T16:00:00Z,29.4012,-89.0355,9.379,11111222 
WAVCIS,ioos:station:WAVCIS:CSI16:1,2009-03-09T17:00:00Z,29.4012,-89.0355,9.398,11111222 
WAVCIS,ioos:station:WAVCIS:CSI16:1,2009-03-09T18:00:00Z,29.4012,-89.0355,9.406,11111222 
WAVCIS,ioos:station:WAVCIS:CSI16:1,2009-03-09T19:00:00Z,29.4012,-89.0355,9.407,11111222 
WAVCIS,ioos:station:WAVCIS:CSI16:1,2009-03-09T20:00:00Z,29.4012,-89.0355,9.42,11111222 
WAVCIS,ioos:station:WAVCIS:CSI16:1,2009-03-09T21:00:00Z,29.4012,-89.0355,9.442,11111222 
WAVCIS,ioos:station:WAVCIS:CSI16:1,2009-03-09T22:00:00Z,29.4012,-89.0355,9.464,11111222 
WAVCIS,ioos:station:WAVCIS:CSI16:1,2009-03-09T23:00:00Z,29.4012,-89.0355,9.495,11111222 
WAVCIS,ioos:station:WAVCIS:CSI16:1,2009-03-10T00:00:00Z,29.4012,-89.0355,9.519,11111222 
WAVCIS,ioos:station:WAVCIS:CSI16:1,2009-03-10T01:00:00Z,29.4012,-89.0355,9.536,11111222 
WAVCIS,ioos:station:WAVCIS:CSI16:1,2009-03-10T02:00:00Z,29.4012,-89.0355,9.548,11111222 
WAVCIS,ioos:station:WAVCIS:CSI16:1,2009-03-10T03:00:00Z,29.4012,-89.0355,9.562,11111222 
WAVCIS,ioos:station:WAVCIS:CSI16:1,2009-03-10T04:00:00Z,29.4012,-89.0355,9.546,11111222 
WAVCIS,ioos:station:WAVCIS:CSI16:1,2009-03-10T05:00:00Z,29.4012,-89.0355,9.518,11111222 
WAVCIS,ioos:station:WAVCIS:CSI16:1,2009-03-10T06:00:00Z,29.4012,-89.0355,9.479,11111222 
WAVCIS,ioos:station:WAVCIS:CSI16:1,2009-03-10T07:00:00Z,29.4012,-89.0355,9.43,11111222 
WAVCIS,ioos:station:WAVCIS:CSI16:1,2009-03-10T08:00:00Z,29.4012,-89.0355,9.378,11111222 
WAVCIS,ioos:station:WAVCIS:CSI16:1,2009-03-10T09:00:00Z,29.4012,-89.0355,9.335,11111222 
WAVCIS,ioos:station:WAVCIS:CSI16:1,2009-03-10T10:00:00Z,29.4012,-89.0355,9.32,11111222 
WAVCIS,ioos:station:WAVCIS:CSI16:1,2009-03-10T11:00:00Z,29.4012,-89.0355,9.316,11111222 
WAVCIS,ioos:station:WAVCIS:CSI16:1,2009-03-10T12:00:00Z,29.4012,-89.0355,9.307,11111222 
WAVCIS,ioos:station:WAVCIS:CSI16:1,2009-03-10T13:00:00Z,29.4012,-89.0355,9.308,11111222 
WAVCIS,ioos:station:WAVCIS:CSI16:1,2009-03-10T14:00:00Z,29.4012,-89.0355,9.322,11111222 
WAVCIS,ioos:station:WAVCIS:CSI16:1,2009-03-10T15:00:00Z,29.4012,-89.0355,9.341,11111222 
WAVCIS,ioos:station:WAVCIS:CSI16:1,2009-03-10T16:00:00Z,29.4012,-89.0355,9.361,11111222 
WAVCIS,ioos:station:WAVCIS:CSI16:1,2009-03-10T17:00:00Z,29.4012,-89.0355,9.369,11111222 
WAVCIS,ioos:station:WAVCIS:CSI16:1,2009-03-10T18:00:00Z,29.4012,-89.0355,9.366,11111222 
WAVCIS,ioos:station:WAVCIS:CSI16:1,2009-03-10T19:00:00Z,29.4012,-89.0355,9.352,11111222 
WAVCIS,ioos:station:WAVCIS:CSI16:1,2009-03-10T20:00:00Z,29.4012,-89.0355,9.338,11111222 
WAVCIS,ioos:station:WAVCIS:CSI16:1,2009-03-10T21:00:00Z,29.4012,-89.0355,9.337,11111222 
WAVCIS,ioos:station:WAVCIS:CSI16:1,2009-03-10T22:00:00Z,29.4012,-89.0355,9.348,11111222 
WAVCIS,ioos:station:WAVCIS:CSI16:1,2009-03-10T23:00:00Z,29.4012,-89.0355,9.381,11111222 
WAVCIS,ioos:station:WAVCIS:CSI16:1,2009-03-11T00:00:00Z,29.4012,-89.0355,9.412,11111222 
WAVCIS,ioos:station:WAVCIS:CSI16:1,2009-03-11T01:00:00Z,29.4012,-89.0355,9.434,11111222 
WAVCIS,ioos:station:WAVCIS:CSI16:1,2009-03-11T02:00:00Z,29.4012,-89.0355,9.461,11111222 
WAVCIS,ioos:station:WAVCIS:CSI16:1,2009-03-11T03:00:00Z,29.4012,-89.0355,9.486,11111222 
WAVCIS,ioos:station:WAVCIS:CSI16:1,2009-03-11T04:00:00Z,29.4012,-89.0355,9.501,11111222 
WAVCIS,ioos:station:WAVCIS:CSI16:1,2009-03-11T05:00:00Z,29.4012,-89.0355,9.506,11111222 
WAVCIS,ioos:station:WAVCIS:CSI16:1,2009-03-11T06:00:00Z,29.4012,-89.0355,9.501,11111222 
WAVCIS,ioos:station:WAVCIS:CSI16:1,2009-03-11T07:00:00Z,29.4012,-89.0355,9.48,11111222 
WAVCIS,ioos:station:WAVCIS:CSI16:1,2009-03-11T08:00:00Z,29.4012,-89.0355,9.443,11111222 
WAVCIS,ioos:station:WAVCIS:CSI16:1,2009-03-11T09:00:00Z,29.4012,-89.0355,9.414,11111222 
WAVCIS,ioos:station:WAVCIS:CSI16:1,2009-03-11T10:00:00Z,29.4012,-89.0355,9.404,11111222 
WAVCIS,ioos:station:WAVCIS:CSI16:1,2009-03-11T11:00:00Z,29.4012,-89.0355,9.422,11111222 
WAVCIS,ioos:station:WAVCIS:CSI16:1,2009-03-11T12:00:00Z,29.4012,-89.0355,9.426,11111222 
WAVCIS,ioos:station:WAVCIS:CSI16:1,2009-03-11T13:00:00Z,29.4012,-89.0355,9.416,11111222 
WAVCIS,ioos:station:WAVCIS:CSI16:1,2009-03-11T14:00:00Z,29.4012,-89.0355,9.421,11111222 
WAVCIS,ioos:station:WAVCIS:CSI16:1,2009-03-11T15:00:00Z,29.4012,-89.0355,9.423,11111222 
WAVCIS,ioos:station:WAVCIS:CSI16:1,2009-03-11T16:00:00Z,29.4012,-89.0355,9.427,11111222 
WAVCIS,ioos:station:WAVCIS:CSI16:1,2009-03-11T17:00:00Z,29.4012,-89.0355,9.416,11111222 
WAVCIS,ioos:station:WAVCIS:CSI16:1,2009-03-11T18:00:00Z,29.4012,-89.0355,9.395,11111222 
WAVCIS,ioos:station:WAVCIS:CSI16:1,2009-03-11T19:00:00Z,29.4012,-89.0355,9.348,11111222 
WAVCIS,ioos:station:WAVCIS:CSI16:1,2009-03-11T20:00:00Z,29.4012,-89.0355,9.307,11111222 
WAVCIS,ioos:station:WAVCIS:CSI16:1,2009-03-11T21:00:00Z,29.4012,-89.0355,9.279,11111222 
WAVCIS,ioos:station:WAVCIS:CSI16:1,2009-03-11T22:00:00Z,29.4012,-89.0355,9.256,11111222 
WAVCIS,ioos:station:WAVCIS:CSI16:1,2009-03-11T23:00:00Z,29.4012,-89.0355,9.267,11111222 
WAVCIS,ioos:station:WAVCIS:CSI16:1,2009-03-12T00:00:00Z,29.4012,-89.0355,9.285,11111222 
WAVCIS,ioos:station:WAVCIS:CSI16:1,2009-03-12T01:00:00Z,29.4012,-89.0355,9.307,11111222 
WAVCIS,ioos:station:WAVCIS:CSI16:1,2009-03-12T02:00:00Z,29.4012,-89.0355,9.319,11111222 
WAVCIS,ioos:station:WAVCIS:CSI16:1,2009-03-12T03:00:00Z,29.4012,-89.0355,9.343,11111222 
WAVCIS,ioos:station:WAVCIS:CSI16:1,2009-03-12T04:00:00Z,29.4012,-89.0355,9.361,11111222 
WAVCIS,ioos:station:WAVCIS:CSI16:1,2009-03-12T05:00:00Z,29.4012,-89.0355,9.378,11111222 
WAVCIS,ioos:station:WAVCIS:CSI16:1,2009-03-12T06:00:00Z,29.4012,-89.0355,9.387,11111222 
WAVCIS,ioos:station:WAVCIS:CSI16:1,2009-03-12T07:00:00Z,29.4012,-89.0355,9.392,11111222 
WAVCIS,ioos:station:WAVCIS:CSI16:1,2009-03-12T08:00:00Z,29.4012,-89.0355,9.376,11111222 
WAVCIS,ioos:station:WAVCIS:CSI16:1,2009-03-12T09:00:00Z,29.4012,-89.0355,9.367,11111222 
WAVCIS,ioos:station:WAVCIS:CSI16:1,2009-03-12T10:00:00Z,29.4012,-89.0355,9.376,11111222 
WAVCIS,ioos:station:WAVCIS:CSI16:1,2009-03-12T11:00:00Z,29.4012,-89.0355,9.394,11111222 
WAVCIS,ioos:station:WAVCIS:CSI16:1,2009-03-12T12:00:00Z,29.4012,-89.0355,9.42,11111222 
WAVCIS,ioos:station:WAVCIS:CSI16:1,2009-03-12T13:00:00Z,29.4012,-89.0355,9.449,11111222 
WAVCIS,ioos:station:WAVCIS:CSI16:1,2009-03-12T14:00:00Z,29.4012,-89.0355,9.461,11111222 
WAVCIS,ioos:station:WAVCIS:CSI16:1,2009-03-12T15:00:00Z,29.4012,-89.0355,9.467,11111222 
WAVCIS,ioos:station:WAVCIS:CSI16:1,2009-03-12T16:00:00Z,29.4012,-89.0355,9.477,11111222 
WAVCIS,ioos:station:WAVCIS:CSI16:1,2009-03-12T17:00:00Z,29.4012,-89.0355,9.473,11111222 
WAVCIS,ioos:station:WAVCIS:CSI16:1,2009-03-12T18:00:00Z,29.4012,-89.0355,9.447,11111222 
WAVCIS,ioos:station:WAVCIS:CSI16:1,2009-03-12T19:00:00Z,29.4012,-89.0355,9.393,11111222 
WAVCIS,ioos:station:WAVCIS:CSI16:1,2009-03-12T20:00:00Z,29.4012,-89.0355,9.349,11111222 
WAVCIS,ioos:station:WAVCIS:CSI16:1,2009-03-12T21:00:00Z,29.4012,-89.0355,9.293,11111222 
WAVCIS,ioos:station:WAVCIS:CSI16:1,2009-03-12T22:00:00Z,29.4012,-89.0355,9.244,11111222 
WAVCIS,ioos:station:WAVCIS:CSI16:1,2009-03-12T23:00:00Z,29.4012,-89.0355,9.232,11111222 
WAVCIS,ioos:station:WAVCIS:CSI16:1,2009-03-13T00:00:00Z,29.4012,-89.0355,9.237,11111222 
WAVCIS,ioos:station:WAVCIS:CSI16:1,2009-03-13T01:00:00Z,29.4012,-89.0355,9.246,11111222 
WAVCIS,ioos:station:WAVCIS:CSI16:1,2009-03-13T02:00:00Z,29.4012,-89.0355,9.25,11111222 
WAVCIS,ioos:station:WAVCIS:CSI16:1,2009-03-13T03:00:00Z,29.4012,-89.0355,9.261,11111222 
WAVCIS,ioos:station:WAVCIS:CSI16:1,2009-03-13T04:00:00Z,29.4012,-89.0355,9.284,11111222 
WAVCIS,ioos:station:WAVCIS:CSI16:1,2009-03-13T05:00:00Z,29.4012,-89.0355,9.315,11111222 
WAVCIS,ioos:station:WAVCIS:CSI16:1,2009-03-13T06:00:00Z,29.4012,-89.0355,9.344,11111222 
WAVCIS,ioos:station:WAVCIS:CSI16:1,2009-03-13T07:00:00Z,29.4012,-89.0355,9.367,11111222 
WAVCIS,ioos:station:WAVCIS:CSI16:1,2009-03-13T08:00:00Z,29.4012,-89.0355,9.376,11111222 
WAVCIS,ioos:station:WAVCIS:CSI16:1,2009-03-13T09:00:00Z,29.4012,-89.0355,9.387,11111222 
WAVCIS,ioos:station:WAVCIS:CSI16:1,2009-03-13T10:00:00Z,29.4012,-89.0355,9.406,11111222 
WAVCIS,ioos:station:WAVCIS:CSI16:1,2009-03-13T11:00:00Z,29.4012,-89.0355,9.43,11111222 
WAVCIS,ioos:station:WAVCIS:CSI16:1,2009-03-13T12:00:00Z,29.4012,-89.0355,9.472,11111222 
WAVCIS,ioos:station:WAVCIS:CSI16:1,2009-03-13T13:00:00Z,29.4012,-89.0355,9.508,11111222 
WAVCIS,ioos:station:WAVCIS:CSI16:1,2009-03-13T14:00:00Z,29.4012,-89.0355,9.535,11111222 
WAVCIS,ioos:station:WAVCIS:CSI16:1,2009-03-13T15:00:00Z,29.4012,-89.0355,9.547,11111222 
WAVCIS,ioos:station:WAVCIS:CSI16:1,2009-03-13T16:00:00Z,29.4012,-89.0355,9.551,11111222 
WAVCIS,ioos:station:WAVCIS:CSI16:1,2009-03-13T17:00:00Z,29.4012,-89.0355,9.547,11111222 
WAVCIS,ioos:station:WAVCIS:CSI16:1,2009-03-13T18:00:00Z,29.4012,-89.0355,9.533,11111222 
WAVCIS,ioos:station:WAVCIS:CSI16:1,2009-03-13T19:00:00Z,29.4012,-89.0355,9.481,11111222 
WAVCIS,ioos:station:WAVCIS:CSI16:1,2009-03-13T21:00:00Z,29.4012,-89.0355,9.352,11111222 
WAVCIS,ioos:station:WAVCIS:CSI16:1,2009-03-13T22:00:00Z,29.4012,-89.0355,9.284,11111222 
WAVCIS,ioos:station:WAVCIS:CSI16:1,2009-03-13T23:00:00Z,29.4012,-89.0355,9.24,11111222 
WAVCIS,ioos:station:WAVCIS:CSI16:1,2009-03-14T00:00:00Z,29.4012,-89.0355,9.222,11111222 
WAVCIS,ioos:station:WAVCIS:CSI16:1,2009-03-14T01:00:00Z,29.4012,-89.0355,9.212,11111222 
WAVCIS,ioos:station:WAVCIS:CSI16:1,2009-03-14T02:00:00Z,29.4012,-89.0355,9.202,11111222 
WAVCIS,ioos:station:WAVCIS:CSI16:1,2009-03-14T03:00:00Z,29.4012,-89.0355,9.203,11111222 
WAVCIS,ioos:station:WAVCIS:CSI16:1,2009-03-14T04:00:00Z,29.4012,-89.0355,9.219,11111222 
WAVCIS,ioos:station:WAVCIS:CSI16:1,2009-03-14T05:00:00Z,29.4012,-89.0355,9.239,11111222 
WAVCIS,ioos:station:WAVCIS:CSI16:1,2009-03-14T06:00:00Z,29.4012,-89.0355,9.274,11111222 
WAVCIS,ioos:station:WAVCIS:CSI16:1,2009-03-14T07:00:00Z,29.4012,-89.0355,9.31,11111222 
WAVCIS,ioos:station:WAVCIS:CSI16:1,2009-03-14T08:00:00Z,29.4012,-89.0355,9.327,11111222 
WAVCIS,ioos:station:WAVCIS:CSI16:1,2009-03-14T09:00:00Z,29.4012,-89.0355,9.354,11111222 
WAVCIS,ioos:station:WAVCIS:CSI16:1,2009-03-14T10:00:00Z,29.4012,-89.0355,9.39,11111222 
WAVCIS,ioos:station:WAVCIS:CSI16:1,2009-03-14T11:00:00Z,29.4012,-89.0355,9.437,11111222 
WAVCIS,ioos:station:WAVCIS:CSI16:1,2009-03-14T12:00:00Z,29.4012,-89.0355,9.48,11111222 
WAVCIS,ioos:station:WAVCIS:CSI16:1,2009-03-14T13:00:00Z,29.4012,-89.0355,9.523,11111222 
WAVCIS,ioos:station:WAVCIS:CSI16:1,2009-03-14T14:00:00Z,29.4012,-89.0355,9.566,11111222 
WAVCIS,ioos:station:WAVCIS:CSI16:1,2009-03-14T15:00:00Z,29.4012,-89.0355,9.588,11111222 
WAVCIS,ioos:station:WAVCIS:CSI16:1,2009-03-14T16:00:00Z,29.4012,-89.0355,9.585,11111222 
WAVCIS,ioos:station:WAVCIS:CSI16:1,2009-03-14T17:00:00Z,29.4012,-89.0355,9.584,11111222 
WAVCIS,ioos:station:WAVCIS:CSI16:1,2009-03-14T18:00:00Z,29.4012,-89.0355,9.564,11111222 
WAVCIS,ioos:station:WAVCIS:CSI16:1,2009-03-14T19:00:00Z,29.4012,-89.0355,9.536,11111222 
WAVCIS,ioos:station:WAVCIS:CSI16:1,2009-03-14T20:00:00Z,29.4012,-89.0355,9.49,11111222 
WAVCIS,ioos:station:WAVCIS:CSI16:1,2009-03-14T21:00:00Z,29.4012,-89.0355,9.431,11111222 
WAVCIS,ioos:station:WAVCIS:CSI16:1,2009-03-14T22:00:00Z,29.4012,-89.0355,9.369,11111222 
WAVCIS,ioos:station:WAVCIS:CSI16:1,2009-03-14T23:00:00Z,29.4012,-89.0355,9.313,11111222 
WAVCIS,ioos:station:WAVCIS:CSI16:1,2009-03-15T00:00:00Z,29.4012,-89.0355,9.258,11111222 
WAVCIS,ioos:station:WAVCIS:CSI16:1,2009-03-15T01:00:00Z,29.4012,-89.0355,9.242,11111222 
WAVCIS,ioos:station:WAVCIS:CSI16:1,2009-03-15T02:00:00Z,29.4012,-89.0355,9.218,11111222 
WAVCIS,ioos:station:WAVCIS:CSI16:1,2009-03-15T03:00:00Z,29.4012,-89.0355,9.22,11111222 
WAVCIS,ioos:station:WAVCIS:CSI16:1,2009-03-15T04:00:00Z,29.4012,-89.0355,9.218,11111222 
WAVCIS,ioos:station:WAVCIS:CSI16:1,2009-03-15T05:00:00Z,29.4012,-89.0355,9.226,11111222 
WAVCIS,ioos:station:WAVCIS:CSI16:1,2009-03-15T06:00:00Z,29.4012,-89.0355,9.241,11111222 
WAVCIS,ioos:station:WAVCIS:CSI16:1,2009-03-15T07:00:00Z,29.4012,-89.0355,9.276,11111222 
WAVCIS,ioos:station:WAVCIS:CSI16:1,2009-03-15T08:00:00Z,29.4012,-89.0355,9.296,11111222 
WAVCIS,ioos:station:WAVCIS:CSI16:1,2009-03-15T09:00:00Z,29.4012,-89.0355,9.34,11111222 
WAVCIS,ioos:station:WAVCIS:CSI16:1,2009-03-15T10:00:00Z,29.4012,-89.0355,9.384,11111222 
WAVCIS,ioos:station:WAVCIS:CSI16:1,2009-03-15T11:00:00Z,29.4012,-89.0355,9.432,11111222 
WAVCIS,ioos:station:WAVCIS:CSI16:1,2009-03-15T12:00:00Z,29.4012,-89.0355,9.478,11111222 
WAVCIS,ioos:station:WAVCIS:CSI16:1,2009-03-15T13:00:00Z,29.4012,-89.0355,9.542,11111222 
WAVCIS,ioos:station:WAVCIS:CSI16:1,2009-03-15T14:00:00Z,29.4012,-89.0355,9.581,11111222 
WAVCIS,ioos:station:WAVCIS:CSI16:1,2009-03-15T15:00:00Z,29.4012,-89.0355,9.628,11111222 
WAVCIS,ioos:station:WAVCIS:CSI16:1,2009-03-15T16:00:00Z,29.4012,-89.0355,9.65,11111222 
WAVCIS,ioos:station:WAVCIS:CSI16:1,2009-03-15T17:00:00Z,29.4012,-89.0355,9.656,11111222 
WAVCIS,ioos:station:WAVCIS:CSI16:1,2009-03-15T18:00:00Z,29.4012,-89.0355,9.627,11111222 
WAVCIS,ioos:station:WAVCIS:CSI16:1,2009-03-15T19:00:00Z,29.4012,-89.0355,9.6,11111222 
WAVCIS,ioos:station:WAVCIS:CSI16:1,2009-03-15T20:00:00Z,29.4012,-89.0355,9.564,11111222 
WAVCIS,ioos:station:WAVCIS:CSI16:1,2009-03-15T21:00:00Z,29.4012,-89.0355,9.515,11111222 
WAVCIS,ioos:station:WAVCIS:CSI16:1,2009-03-15T22:00:00Z,29.4012,-89.0355,9.457,11111222 
WAVCIS,ioos:station:WAVCIS:CSI16:1,2009-03-15T23:00:00Z,29.4012,-89.0355,9.4,11111222 
WAVCIS,ioos:station:WAVCIS:CSI16:1,2009-03-16T00:00:00Z,29.4012,-89.0355,9.349,11111222 
WAVCIS,ioos:station:WAVCIS:CSI16:1,2009-03-16T01:00:00Z,29.4012,-89.0355,9.304,11111222 
WAVCIS,ioos:station:WAVCIS:CSI16:1,2009-03-16T02:00:00Z,29.4012,-89.0355,9.278,11111222 
WAVCIS,ioos:station:WAVCIS:CSI16:1,2009-03-16T03:00:00Z,29.4012,-89.0355,9.263,11111222 
WAVCIS,ioos:station:WAVCIS:CSI16:1,2009-03-16T04:00:00Z,29.4012,-89.0355,9.259,11111222 
WAVCIS,ioos:station:WAVCIS:CSI16:1,2009-03-16T05:00:00Z,29.4012,-89.0355,9.249,11111222 
WAVCIS,ioos:station:WAVCIS:CSI16:1,2009-03-16T06:00:00Z,29.4012,-89.0355,9.252,11111222 
WAVCIS,ioos:station:WAVCIS:CSI16:1,2009-03-16T07:00:00Z,29.4012,-89.0355,9.265,11111222 
WAVCIS,ioos:station:WAVCIS:CSI16:1,2009-03-16T08:00:00Z,29.4012,-89.0355,9.292,11111222 
WAVCIS,ioos:station:WAVCIS:CSI16:1,2009-03-16T09:00:00Z,29.4012,-89.0355,9.336,11111222 
WAVCIS,ioos:station:WAVCIS:CSI16:1,2009-03-16T10:00:00Z,29.4012,-89.0355,9.354,11111222 
WAVCIS,ioos:station:WAVCIS:CSI16:1,2009-03-16T11:00:00Z,29.4012,-89.0355,9.405,11111222 
WAVCIS,ioos:station:WAVCIS:CSI16:1,2009-03-16T12:00:00Z,29.4012,-89.0355,9.483,11111222 
WAVCIS,ioos:station:WAVCIS:CSI16:1,2009-03-16T13:00:00Z,29.4012,-89.0355,9.512,11111222 
WAVCIS,ioos:station:WAVCIS:CSI16:1,2009-03-16T14:00:00Z,29.4012,-89.0355,9.57,11111222 
WAVCIS,ioos:station:WAVCIS:CSI16:1,2009-03-16T15:00:00Z,29.4012,-89.0355,9.632,11111222 
WAVCIS,ioos:station:WAVCIS:CSI16:1,2009-03-16T16:00:00Z,29.4012,-89.0355,9.659,11111222 
WAVCIS,ioos:station:WAVCIS:CSI16:1,2009-03-16T17:00:00Z,29.4012,-89.0355,9.652,11111222 
WAVCIS,ioos:station:WAVCIS:CSI16:1,2009-03-16T18:00:00Z,29.4012,-89.0355,9.662,11111222 
WAVCIS,ioos:station:WAVCIS:CSI16:1,2009-03-16T19:00:00Z,29.4012,-89.0355,9.621,11111222 
WAVCIS,ioos:station:WAVCIS:CSI16:1,2009-03-16T20:00:00Z,29.4012,-89.0355,9.588,11111222 
WAVCIS,ioos:station:WAVCIS:CSI16:1,2009-03-16T21:00:00Z,29.4012,-89.0355,9.558,11111222 
WAVCIS,ioos:station:WAVCIS:CSI16:1,2009-03-16T22:00:00Z,29.4012,-89.0355,9.517,11111222 
WAVCIS,ioos:station:WAVCIS:CSI16:1,2009-03-16T23:00:00Z,29.4012,-89.0355,9.458,11111222 
WAVCIS,ioos:station:WAVCIS:CSI16:1,2009-03-17T00:00:00Z,29.4012,-89.0355,9.381,11111222 
WAVCIS,ioos:station:WAVCIS:CSI16:1,2009-03-17T01:00:00Z,29.4012,-89.0355,9.325,11111222 
WAVCIS,ioos:station:WAVCIS:CSI16:1,2009-03-17T02:00:00Z,29.4012,-89.0355,9.28,11111222 
WAVCIS,ioos:station:WAVCIS:CSI16:1,2009-03-17T03:00:00Z,29.4012,-89.0355,9.226,11111222 
WAVCIS,ioos:station:WAVCIS:CSI16:1,2009-03-17T04:00:00Z,29.4012,-89.0355,9.205,11111222 
WAVCIS,ioos:station:WAVCIS:CSI16:1,2009-03-17T05:00:00Z,29.4012,-89.0355,9.188,11111222 
WAVCIS,ioos:station:WAVCIS:CSI16:1,2009-03-17T06:00:00Z,29.4012,-89.0355,9.182,11111222 
WAVCIS,ioos:station:WAVCIS:CSI16:1,2009-03-17T07:00:00Z,29.4012,-89.0355,9.189,11111222 
WAVCIS,ioos:station:WAVCIS:CSI16:1,2009-03-17T08:00:00Z,29.4012,-89.0355,9.197,11111222 
WAVCIS,ioos:station:WAVCIS:CSI16:1,2009-03-17T09:00:00Z,29.4012,-89.0355,9.222,11111222 
WAVCIS,ioos:station:WAVCIS:CSI16:1,2009-03-17T10:00:00Z,29.4012,-89.0355,9.272,11111222 
WAVCIS,ioos:station:WAVCIS:CSI16:1,2009-03-17T11:00:00Z,29.4012,-89.0355,9.33,11111222 
WAVCIS,ioos:station:WAVCIS:CSI16:1,2009-03-17T12:00:00Z,29.4012,-89.0355,9.393,11111222 
WAVCIS,ioos:station:WAVCIS:CSI16:1,2009-03-17T14:00:00Z,29.4012,-89.0355,9.52,11111222 
WAVCIS,ioos:station:WAVCIS:CSI16:1,2009-03-17T15:00:00Z,29.4012,-89.0355,9.577,11111222 
WAVCIS,ioos:station:WAVCIS:CSI16:1,2009-03-17T16:00:00Z,29.4012,-89.0355,9.62,11111222 
WAVCIS,ioos:station:WAVCIS:CSI16:1,2009-03-17T17:00:00Z,29.4012,-89.0355,9.651,11111222 
WAVCIS,ioos:station:WAVCIS:CSI16:1,2009-03-17T18:00:00Z,29.4012,-89.0355,9.661,11111222 
WAVCIS,ioos:station:WAVCIS:CSI16:1,2009-03-17T19:00:00Z,29.4012,-89.0355,9.656,11111222 
WAVCIS,ioos:station:WAVCIS:CSI16:1,2009-03-17T20:00:00Z,29.4012,-89.0355,9.638,11111222 
WAVCIS,ioos:station:WAVCIS:CSI16:1,2009-03-17T21:00:00Z,29.4012,-89.0355,9.616,11111222 
WAVCIS,ioos:station:WAVCIS:CSI16:1,2009-03-17T22:00:00Z,29.4012,-89.0355,9.579,11111222 
WAVCIS,ioos:station:WAVCIS:CSI16:1,2009-03-17T23:00:00Z,29.4012,-89.0355,9.543,11111222 